Weather History for Skagway, AK

Change the Weather History Date:

Tuesday, October 1, 2013

  Actual Average Record
Temperature  
Mean Temperature 50 °F -  
Max Temperature 55 °F 50 °F 60 °F (1988)
Min Temperature 46 °F 40 °F 28 °F (1996)
Degree Days  
Heating Degree Days 14    
Moisture  
Dew Point 42 °F    
Average Humidity 77    
Maximum Humidity 93    
Minimum Humidity 45    
Precipitation  
Precipitation 0.14 in - - ()
Sea Level Pressure  
Sea Level Pressure 29.75 in    
Wind  
Wind Speed 6 mph (NW)    
Max Wind Speed 14 mph    
Max Gust Speed 20 mph    
Visibility 10 miles    
Events Rain    
Averages and records for this station are not official NWS values.
T = Trace of Precipitation, MM = Missing Value Source: NWS Daily Summary

Daily Weather History Graph

Daily Weather History Graph

Search for Another Location

Airport:

Trip Planner

Search our weather history database for the weather conditions in past years. The results will help you decide how hot, cold, wet, or windy it might be!

Date:

Astronomy

Oct. 01, 2013 Rise Set
Actual Time 7:07 AM AKDT 6:32 PM AKDT
Civil Twilight 6:26 AM AKDT 7:13 PM AKDT
Nautical Twilight 5:38 AM AKDT 8:01 PM AKDT
Astronomical Twilight 4:48 AM AKDT 8:51 PM AKDT
Moon 3:09 AM AKDT (10/1) 5:11 PM AKDT (10/1)
Length of Visible Light 12h 46m
Length of Day
11h 25m
Waning Crescent, 11% of the Moon is Illuminated
Oct 1
Waning Crescent
Oct 4
New
Oct 11
First Quarter
Oct 18
Full
Oct 26
Last Quarter

Hourly Weather History & Observations

Time (AKDT) Temp. Dew Point Humidity Pressure Visibility Wind Dir Wind Speed Gust Speed Precip Events Conditions
12:53 AM 55.9 °F 35.1 °F 45% 29.52 in 10.0 mi NNE 10.4 mph - N/A   Overcast
1:53 AM 54.0 °F 39.0 °F 57% 29.55 in 10.0 mi NE 5.8 mph - 0.00 in Rain Light Rain
2:53 AM 51.1 °F 42.1 °F 71% 29.56 in 10.0 mi Variable 3.5 mph - 0.00 in   Overcast
3:53 AM 54.0 °F 37.0 °F 53% 29.58 in 10.0 mi NNE 6.9 mph - N/A   Overcast
4:53 AM 54.0 °F 36.0 °F 51% 29.58 in 10.0 mi NNE 9.2 mph - N/A   Overcast
5:53 AM 54.0 °F 36.0 °F 51% 29.60 in 10.0 mi NNE 10.4 mph - N/A   Overcast
6:53 AM 54.0 °F 36.0 °F 51% 29.60 in 10.0 mi NNE 13.8 mph 19.6 mph N/A   Overcast
7:53 AM 52.0 °F 37.9 °F 59% 29.62 in 10.0 mi Calm Calm - N/A   Overcast
8:53 AM 53.1 °F 37.9 °F 57% 29.64 in 10.0 mi North 5.8 mph - N/A   Overcast
9:53 AM 52.0 °F 39.9 °F 63% 29.66 in 10.0 mi North 3.5 mph - 0.00 in Rain Light Rain
10:53 AM 50.0 °F 42.1 °F 74% 29.68 in 10.0 mi Calm Calm - 0.00 in   Overcast
11:53 AM 46.9 °F 42.1 °F 83% 29.71 in 10.0 mi SW 10.4 mph - 0.00 in Rain Light Rain
12:53 PM 46.9 °F 44.1 °F 90% 29.75 in 7.0 mi WSW 3.5 mph - 0.03 in Rain Light Rain
1:53 PM 48.0 °F 45.0 °F 89% 29.77 in 10.0 mi WSW 3.5 mph - 0.04 in Rain Light Rain
2:53 PM 46.9 °F 44.1 °F 90% 29.78 in 10.0 mi SW 4.6 mph - 0.00 in Rain Light Rain
3:53 PM 48.0 °F 45.0 °F 89% 29.80 in 10.0 mi SSW 8.1 mph - 0.01 in Rain Light Rain
4:53 PM 48.9 °F 45.0 °F 86% 29.82 in 10.0 mi SSW 8.1 mph - 0.00 in   Overcast
5:53 PM 48.9 °F 46.0 °F 90% 29.85 in 9.0 mi Calm Calm - 0.01 in Rain Light Rain
6:53 PM 48.0 °F 44.1 °F 86% 29.87 in 10.0 mi WSW 5.8 mph - 0.03 in Rain Light Rain
7:53 PM 46.9 °F 45.0 °F 93% 29.89 in 10.0 mi Calm Calm - 0.00 in   Overcast
8:35 PM 46.4 °F 44.6 °F 93% 29.89 in 10.0 mi Calm Calm - N/A   Overcast
8:53 PM 46.9 °F 44.1 °F 90% 29.91 in 10.0 mi Calm Calm - 0.01 in Rain Light Rain
9:53 PM 46.9 °F 45.0 °F 93% 29.92 in 10.0 mi Calm Calm - 0.01 in   Overcast
10:53 PM 46.9 °F 45.0 °F 93% 29.94 in 10.0 mi Calm Calm - N/A   Overcast
11:36 PM 46.4 °F 44.6 °F 93% 29.95 in 10.0 mi Calm Calm - N/A   Overcast
11:44 PM 46.4 °F 44.6 °F 93% 29.95 in 10.0 mi Calm Calm - N/A   Overcast
11:53 PM 46.0 °F 44.1 °F 93% 29.96 in 10.0 mi Calm Calm - N/A   Overcast